TimeEST,TemperatureF,Dew PointF,Humidity,Sea Level PressureIn,VisibilityMPH,Wind Direction,Wind SpeedMPH,Gust SpeedMPH,PrecipitationIn,Events,Conditions,WindDirDegrees,DateUTC
12:53 AM,36.0,21.9,57,30.03,10.0,Variable,4.6,-,N/A,,Overcast,0,2014-02-10 05:53:00
1:53 AM,30.0,25.0,82,30.05,7.0,NE,4.6,-,N/A,,Clear,40,2014-02-10 06:53:00
2:53 AM,28.9,24.1,82,30.06,6.0,ENE,3.5,-,N/A,,Haze,60,2014-02-10 07:53:00
3:53 AM,28.0,25.0,88,30.08,5.0,Calm,Calm,-,N/A,,Clear,0,2014-02-10 08:53:00
4:53 AM,28.0,25.0,88,30.09,5.0,Calm,Calm,-,N/A,,Clear,0,2014-02-10 09:53:00
5:53 AM,30.0,25.0,82,30.11,9.0,North,3.5,-,N/A,,Scattered Clouds,350,2014-02-10 10:53:00
6:53 AM,27.0,23.0,85,30.14,8.0,East,9.2,-,N/A,,Partly Cloudy,80,2014-02-10 11:53:00
7:53 AM,28.0,19.0,69,30.16,10.0,East,6.9,-,N/A,,Overcast,80,2014-02-10 12:53:00
8:53 AM,27.0,17.1,66,30.21,10.0,ENE,8.1,-,N/A,,Overcast,70,2014-02-10 13:53:00
9:53 AM,27.0,16.0,63,30.21,10.0,NE,6.9,-,N/A,,Mostly Cloudy,50,2014-02-10 14:53:00
10:53 AM,28.9,16.0,58,30.23,10.0,ENE,5.8,-,N/A,,Mostly Cloudy,70,2014-02-10 15:53:00
11:53 AM,30.0,16.0,56,30.22,10.0,ESE,4.6,-,N/A,,Clear,120,2014-02-10 16:53:00
12:53 PM,30.9,17.1,57,30.20,10.0,Variable,4.6,-,N/A,,Overcast,0,2014-02-10 17:53:00
1:53 PM,30.9,16.0,54,30.18,10.0,Variable,3.5,-,N/A,,Partly Cloudy,0,2014-02-10 18:53:00
2:53 PM,33.1,16.0,50,30.18,10.0,Variable,3.5,-,N/A,,Clear,0,2014-02-10 19:53:00
3:53 PM,33.1,17.1,52,30.18,10.0,SSE,6.9,-,N/A,,Clear,150,2014-02-10 20:53:00
4:53 PM,33.1,17.1,52,30.18,10.0,SSE,4.6,-,N/A,,Clear,150,2014-02-10 21:53:00
5:53 PM,32.0,16.0,52,30.21,10.0,East,3.5,-,N/A,,Clear,80,2014-02-10 22:53:00
6:53 PM,28.9,17.1,61,30.23,10.0,NE,5.8,-,N/A,,Clear,50,2014-02-10 23:53:00
7:53 PM,26.1,16.0,66,30.25,10.0,NNE,4.6,-,N/A,,Clear,30,2014-02-11 00:53:00
8:53 PM,27.0,16.0,63,30.26,10.0,Calm,Calm,-,N/A,,Clear,0,2014-02-11 01:53:00
9:53 PM,25.0,15.1,66,30.29,10.0,NE,5.8,-,N/A,,Clear,50,2014-02-11 02:53:00
10:53 PM,24.1,14.0,65,30.31,10.0,ENE,5.8,-,N/A,,Clear,60,2014-02-11 03:53:00
11:53 PM,23.0,12.9,65,30.32,10.0,NE,3.5,-,N/A,,Mostly Cloudy,50,2014-02-11 04:53:00